277P/LINEAR (2020)

Japanese version
Home page
Updated on January 12, 2021

---------------------------------------------------------------------

* Profile

* Pictures

* Orbital Elements

Epoch 2020 Dec. 17.0 TT = JDT 2459200.5
T 2020 Dec. 30.17468 TT                                 Rudenko
q   1.9044547            (2000.0)            P               Q
n   0.13036153     Peri.  152.31920     +0.34417976     -0.89399288
a   3.8521490      Node   276.34484     +0.79925187     +0.43932271
e   0.5056124      Incl.   16.77881     +0.49268321     -0.08816059
P   7.56
From 206 observations 2005 Sept. 15-2020 Sept. 21, mean residual 0".7.

* Finding Charts

* Magnitudes Graph

        m1 = 7.0 + 5 log d + 30.0 log r(t - 50)

---------------------------------------------------------------------

The orbital elements are published on M.P.E.C. 2020-S188.
The charts are made with StellaNavigator Ver.10 (AstroArts).
The magnitudes graphs are made with Comet for Windows.

---------------------------------------------------------------------

Copyright(C) Seiichi Yoshida (comet@aerith.net). All rights reserved.